Regional Weather Roundup
Issued by NWS

Home | Current Version | Previous Version | Graphics & Text | Print | Product List | Glossary On
Versions: 1 2 3 4 5 6 7 8 9 10 11 12 13 14 15 16 17 18 19 20 21 22 23 24 25 26 27 28 29 30 31 32 33 34 35 36 37 38 39 40 41 42 43 44 45 46 47 48 49 50
000
ASUS43 KMPX 292210
RWRMN
WEATHER ROUNDUP FOR MINNESOTA
NATIONAL WEATHER SERVICE TWIN CITIES/CHANHASSEN MN
500 PM CDT MON JUN 29 2015


NOTE: "FAIR" INDICATES FEW OR NO CLOUDS BELOW 12,000 FEET WITH NO
SIGNIFICANT WEATHER AND/OR OBSTRUCTIONS TO VISIBILITY. N/A MEANS
CURRENT SKY AND/OR WEATHER CONDITIONS ARE NOT AVAILABLE.

MNZ060>063-068>070-292300-
   Twin Cities Metro

CITY           SKY/WX    TMP DP  RH WIND       PRES   REMARKS
TWIN CITIES    PTSUNNY   77  61  57 W14       29.78S
ST PAUL        PTSUNNY   80  64  58 W14G23    29.77F
CRYSTAL        PTSUNNY   78  63  59 SW7       29.76F
BLAINE         MOSUNNY   81  64  57 W8        29.77F
LAKEVILLE      PTSUNNY   73  64  73 W7        29.79F
EDEN PRAIRIE   MOSUNNY   74  65  73 E6        29.78S THUNDER
SOUTH ST PAUL  PTSUNNY   81  62  52 W9        29.77S
LAKE ELMO      FAIR      81  63  54 W12       29.79R
$$
MNZ001>005-007-008-013>017-022>024-027-028-292300-
   Northwest Minnesota

CITY           SKY/WX    TMP DP  RH WIND       PRES   REMARKS
BEMIDJI        MOSUNNY   78  58  50 N14       29.84S
HALLOCK        SUNNY     75  61  60 N12G18    29.87S
ROSEAU         MOSUNNY   75  63  64 N8        29.86S
WARROAD        MOSUNNY   72  63  73 E13       29.87S
THIEF RVR FALL MOSUNNY   79  59  50 NW14      29.85F
CROOKSTON      SUNNY     79  63  57 N14       29.86F
FOSSTON        SUNNY     79  63  57 N13       29.85F
DETROIT LAKES  SUNNY     77  63  61 NW13      29.87S
MOORHEAD       SUNNY     75  64  69 NW12      29.86F
PARK RAPIDS    MOSUNNY   80  60  50 N17       29.83R
MAHNOMEN       FAIR      77  64  63 N9        29.84F
$$
MNZ006-009>011-018-025>026-292300-
   North Central Minnesota

CITY           SKY/WX    TMP DP  RH WIND       PRES   REMARKS
BAUDETTE       SUNNY     74  58  57 N10       29.85S
FLAG ISLAND    MOSUNNY   72  55  56 N10       29.86S
INTL FALLS     CLOUDY    71  57  61 N14       29.84R
WASKISH        SUNNY     77  57  50 NW10G16   29.84S
BIG FORK       SUNNY    N/A N/A N/A N6        29.81S
LONGVILLE      SUNNY     79  61  53 NW8       29.81R
GRAND RAPIDS   MOSUNNY   79  55  44 N16       29.79S
CRANE LAKE     MOSUNNY   70  57  64 N9        29.82S
ORR            SUNNY     73  55  53 NW7       29.78S
COOK           MOSUNNY   73  61  64 N7        29.80S
WALKER         FAIR      77  57  50 NW6G17    29.82R
$$
MNZ012-019>021-037-292300-
   Northeast Minnesota

CITY           SKY/WX    TMP DP  RH WIND       PRES   REMARKS
DULUTH         MOSUNNY   75  60  59 N8        29.78S
ELY            MOSUNNY   72  59  64 N3G16     29.79R
HIBBING        SUNNY     77  57  50 NW14      29.78S
EVELETH        SUNNY     72  57  60 N6        29.80S
DULUTH HARBOR  MOSUNNY   75  66  73 SW5       29.75S
TWO HARBORS    PTSUNNY   75  64  69 N9G16     29.76R
GRAND MARAIS     N/A     58  56  93 SW5       29.75R
G MARAIS ARPRT CLOUDY    61  55  82 NW5       29.80S
$$
MNZ029>031-032-039>041-046>048-054>057-064-292300-
   West Central Minnesota

CITY           SKY/WX    TMP DP  RH WIND       PRES   REMARKS
FERGUS FALLS   SUNNY     75  63  64 NW13      29.84F
WHEATON        SUNNY     75  63  64 NW7       29.87S
MORRIS         SUNNY     79  64  61 NW13      29.84S
ALEXANDRIA     SUNNY     77  64  64 NW13      29.85S
ELBOW LAKE     FAIR      74  65  74 NW13      29.85S
WADENA         SUNNY     77  63  61 NW12G17   29.83R
GLENWOOD       SUNNY     77  64  65 W13       29.85R
APPLETON       SUNNY     81  61  50 NW13      29.84S
BENSON         SUNNY     79  63  57 NW9       29.84S
ORTONVILLE     SUNNY     81  61  50 NW10      29.86S
MADISON        SUNNY     81  61  50 NW9       29.86S
WILLMAR        FAIR      81  64  57 W12       29.84F
$$
MNZ033>034-036-042>043-049>051-058-059-292300-
   Central Minnesota

CITY           SKY/WX    TMP DP  RH WIND       PRES   REMARKS
ST CLOUD       SUNNY     82  62  50 W14G20    29.78S
SAUK CENTRE    FAIR      78  64  63 NW13G18   29.82S
PAYNESVILLE    SUNNY     75  62  64 SW15      29.82F
AITKIN         MOSUNNY   79  63  57 NW6       29.76R
PINE RIVER     MOSUNNY   81  63  54 N13       29.84R
BRAINERD       SUNNY     81  61  50 N15       29.79S
STAPLES        SUNNY     81  63  54 NW14G20   29.81S
LONG PRAIRIE   FAIR      77  64  65 W10G18    29.83R
LITTLE FALLS   SUNNY     81  61  50 NW12G20   29.79S
LITCHFIELD     SUNNY     81  63  54 W12G17    29.82F
BUFFALO        MOSUNNY   81  61  51 W10       29.80S
MAPLE LAKE     SUNNY     81  65  59 W12       29.80F
$$
MNZ037-044-045-052-053-292300-
   East Central Minnesota

CITY           SKY/WX    TMP DP  RH WIND       PRES   REMARKS
PRINCETON      SUNNY     82  64  54 W9G16     29.76F
MORA           MOSUNNY   79  63  57 E8        29.77R
CAMBRIDGE      MOSUNNY   82  64  54 SW7       29.73F
RUSH CITY      TSTM      69  58  67 NE6       29.78R
MOOSE LAKE     PTSUNNY   66  64  94 CALM      29.76S
HINCKLEY       HVY RAIN  63  59  88 N8        29.78F
CLOQUET        MOSUNNY   73  63  68 CALM      29.78R
MCGREGOR       MOSUNNY   81  57  44 N13       29.77R
$$
MNZ071>073-080-081-089-090-097-098-292300-
   Southwest Minnesota

CITY           SKY/WX    TMP DP  RH WIND       PRES   REMARKS
MONTEVIDEO     SUNNY     81  64  57 NW9       29.85S
GRANITE FALLS  SUNNY     79  63  57 W8        29.86S
CANBY          SUNNY     78  63  59 NW8       29.88S
MARSHALL       SUNNY     81  59  47 NW14      29.87S
REDWOOD FALLS  SUNNY     81  63  54 W12       29.84S
OLIVIA         SUNNY     77  63  61 W12       29.84S
PIPESTONE      SUNNY     79  57  47 NW10      29.92S
WINDOM         SUNNY     81  61  50 W10       29.88S
WORTHINGTON    SUNNY     79  59  50 W10       29.90F
JACKSON        SUNNY     81  61  50 NW10      29.89S
TRACY          SUNNY     80  62  53 NW7       29.88S
SLAYTON        SUNNY     79  57  47 W7        29.91S
$$
MNZ065>067-074>077-082>085-091>093-292300-
   South Central Minnesota

CITY           SKY/WX    TMP DP  RH WIND       PRES   REMARKS
MANKATO        SUNNY     79  64  61 NW13      29.83S
NEW ULM        SUNNY     79  63  57 NW13G18   29.83F
ST JAMES       SUNNY     81  64  57 W12G18    29.86S
FAIRMONT       SUNNY     81  61  50 NW14      29.86S
GLENCOE        SUNNY     80  66  61 W8        29.80F
FARIBAULT      MOSUNNY   79  64  61 W9G17     29.82R
OWATONNA       MOSUNNY   81  63  54 W13G18    29.83R
WASECA         SUNNY     77  64  65 W9        29.85R
ALBERT LEA     SUNNY     81  63  54 NW6       29.83S
$$
MNZ078>079-086>088-094>096-292300-
   Southeast Minnesota

CITY           SKY/WX    TMP DP  RH WIND       PRES   REMARKS
ROCHESTER      MOSUNNY   80  64  58 NW14      29.82R
RED WING       MOSUNNY   84  61  45 NW10      29.76S
STANTON        PTSUNNY   77  64  65 W6        29.78S
DODGE CENTER   MOSUNNY   79  63  57 NW9       29.83R
WINONA         MOSUNNY   77  61  57 E5        29.78R
AUSTIN         SUNNY     79  63  57 NW12G18   29.83R
PRESTON        SUNNY     77  62  58 NW14      29.82R
$$
ABBREVIATIONS USED IN REMARKS
   TC - TEMPERATURES IN CELSIUS
  WCI - WIND CHILL INDEX
   HX - HEAT INDEX
  VSB - VISIBILITY
$$



USA.gov is the U.S. government's official web portal to all federal, state and local government web resources and services.